Flag for Germany Weather past 2 weeks in Neumarkt in der Oberpfalz, Bavaria, Germany

Now
54 °F

Overcast.


Feels Like: 51 °F
Forecast: 42 / 70 °F
Wind: 8 mph from Northwest

Location: Hohenfels

Current Time: May 30, 2015 at 12:59:27 PM

Latest Report: May 30, 2015 at 11:58 AM


Visibility: N/A

Pressure: 30.01 "Hg

Humidity: 82%

Dew point: 48 °F

Location of Neumarkt in der OberpfalzLocation

Historic Weather in Neumarkt in der Oberpfalz — Graph

°F

Neumarkt in der Oberpfalz temperature yesterday

Maximum temperature yesterday: 68 °F (at 5:58 PM)
Minimum temperature yesterday: 46 °F (at 12:58 AM)
Average temperature yesterday: 56 °F

Past Weeks' High & Low Weather Summary

 TemperatureHumidityPressure
High73 °F (May 18, 4:58 PM)100% (May 20, 7:58 PM)30.35 "Hg (May 20, 7:58 PM)
Low36 °F (May 22, 4:58 AM)30% (May 16, 10:58 AM)28.78 "Hg (May 30, 12:55 AM)
Average54 °F72%30.05 "Hg
* Reported May 15 10:58 AM — May 30 10:58 AM, Neumarkt in der Oberpfalz, Weather by CustomWeather, © 2015

Note: Actual official high and low records may vary slightly from our data, if they occured in-between our weather recording intervals... More about our weather records

Advertising

Neumarkt in der Oberpfalz weather history for previous 24 hours

 ConditionsComfort  
Time TempWeatherWind HumidityBarometerVisibility
10:58 AM
Sat, May 30
54 °FCloudy.7 mph88%29.99 "HgN/A
9:59 AM55 °FLight rain. Mostly cloudy.10 mph82%29.96 "HgN/A
9:02 AM54 °FMore clouds than sun.8 mph88%29.94 "HgN/A
8:58 AM54 °FLight rain. Cloudy.10 mph94%29.93 "HgN/A
7:58 AM54 °FOvercast.2 mph82%29.90 "HgN/A
6:58 AM52 °FMostly cloudy.2 mph88%29.90 "HgN/A
5:58 AM48 °FClear.No wind94%29.90 "HgN/A
12:55 AM54 °FPassing clouds.7 mph88%28.78 "HgN/A
10:58 PM
Fri, May 29
54 °FPassing clouds.No wind88%29.87 "HgN/A
9:58 PM55 °FPartly sunny.2 mph88%29.88 "HgN/A
8:58 PM59 °FPassing clouds.6 mph88%29.83 "HgN/A
7:58 PM63 °FPassing clouds.2 mph73%29.81 "HgN/A
6:58 PM63 °FPartly sunny.No wind77%29.83 "HgN/A
5:58 PM68 °FPassing clouds.2 mph53%29.82 "HgN/A
4:58 PM64 °FLight rain. Broken clouds.5 mph64%29.86 "HgN/A
3:58 PM66 °FPassing clouds.2 mph68%29.85 "HgN/A
2:58 PM61 °FBroken clouds.3 mph83%29.89 "HgN/A
2:00 PM61 °FThundershowers. Broken clouds.2 mph83%29.90 "HgN/A
1:58 PM61 °FThundershowers. Broken clouds.2 mph77%29.90 "HgN/A
12:59 PM64 °FLight rain. Broken clouds.3 mph60%29.91 "HgN/A
Weather by CustomWeather, © 2015

See weather overviewHow to use our weather pages